Location: Observatoire
(46.1952°N, 5.3391°E)
Time: 06:17:41
(UTC+01:00)

A-11 Canister half - Pass Details

Date: 18 February 2026
Orbit: 1524 x 1683 km, 47.3° (Epoch: 13 March)

Event Time Altitude Azimuth Distance (km) Brightness Sun altitude
Rises 20:07:33 0° 274° (W) 4,689 13.1 -21.2°
Reaches altitude 10° 20:10:36 10° 275° (W) 3,698 12.2 -21.7°
Maximum altitude 20:19:57 85° 5° (N) 1,535 8.9 -23.3°
Enters shadow 20:24:07 39° 91° (E) 2,157 9.2 -24.0°
Drops below altitude 10° 20:29:20 10° 95° (E) 3,717 - -24.9°
Sets 20:32:24 0° 96° (E) 4,714 - -25.4°
